User: anonymous   Login
Location: Bonn
(50.7330°N, 7.1000°E)
Time: 11:36:54
(UTC+01:00)
Language:

Cosmos 1933 Rocket - Orbit

View from above orbital plane
View from above orbital plane
View from above satellite
View from above satellite

Ground track
Ground track

The orbit data is extracted from the following two-line orbital elements,

1 18959U 88020B   16037.46026443  .00000233  00000-0  25566-4 0  9992
2 18959  82.5377  14.9360 0016355 340.6061  19.4530 14.83240907506943
Epoch (UTC): 06 February 2016 11:02:46
Eccentricity: 0.0016355
inclination: 82.5377°
perigee height: 607 km
apogee height: 630 km
right ascension of ascending node: 14.9360°
argument of perigee: 340.6061°
revolutions per day: 14.83240907
mean anomaly at epoch: 19.4530°
orbit number at epoch: 50694

The dashed part of the orbit path shows where the satellite is in the earth's shadow,  

DLR